DW1289 Weather Reports


time (UTC)temp
F
wind
direction
speed
knots
gust
knots
rain 1hr
in
rain 24hr
in
rain mn
in
humidity
%
barometer
mb
20260509164016 73 248 2.6 7.0 0.00 0.00 0.00 58 1010.0
20260509163016 73 225 2.6 7.8 0.00 0.00 0.00 58 1010.0
20260509162116 73 225 2.6 7.8 0.00 0.00 0.00 56 1009.8
20260509161016 72 248 2.6 7.8 0.00 0.00 0.00 57 1009.8
20260509160016 72 248 3.5 7.8 0.00 0.00 0.00 59 1009.9
20260509155016 73 248 1.7 6.1 0.00 0.00 0.00 60 1009.9
20260509154036 71 248 2.6 7.0 0.00 0.00 0.00 63 1009.7
20260509153016 72 248 3.5 9.6 0.00 0.00 0.00 64 1009.6
20260509152016 71 248 3.5 7.0 0.00 0.00 0.00 67 1009.7
20260509151016 70 248 3.5 7.8 0.00 0.00 0.00 65 1009.7
20260509150016 71 248 2.6 8.7 0.00 0.00 0.00 63 1009.7
20260509145016 70 248 2.6 6.1 0.00 0.00 0.00 64 1009.5
20260509144016 69 248 3.5 6.1 0.00 0.00 0.00 64 1009.5
20260509143056 68 248 2.6 7.0 0.00 0.00 0.00 67 1009.6
20260509142016 67 248 2.6 6.1 0.00 0.00 0.00 69 1009.5
20260509141016 67 248 2.6 7.0 0.00 0.00 0.00 70 1009.5
20260509140036 65 248 2.6 5.2 0.00 0.00 0.00 74 1009.4
20260509135016 64 248 2.6 6.1 0.00 0.00 0.00 77 1009.4
20260509134036 62 248 1.7 5.2 0.00 0.00 0.00 82 1009.4
20260509133016 61 225 1.7 4.3 0.00 0.00 0.00 84 1009.4
20260509132016 59 180 0.9 3.5 0.00 0.00 0.00 85 1009.4
20260509131016 58 0.0 0.0 0.00 0.00 0.00 85 1009.3
20260509130016 58 0.0 0.0 0.00 0.00 0.00 85 1009.2
20260509125016 58 0.0 0.0 0.00 0.00 0.00 85 1009.1
20260509124016 58 0.0 0.0 0.00 0.00 0.00 85 1009.0
20260509123036 57 0.0 0.0 0.00 0.00 0.00 84 1009.2
20260509122016 57 0.0 0.0 0.00 0.00 0.00 84 1009.4
20260509121016 57 0.0 0.0 0.00 0.00 0.00 84 1009.3
20260509120036 57 0.0 0.0 0.00 0.00 0.00 84 1009.3
20260509115016 57 0.0 0.0 0.00 0.00 0.00 84 1009.2
20260509114016 57 0.0 0.0 0.00 0.00 0.00 84 1008.9
20260509113016 57 0.0 0.0 0.00 0.00 0.00 84 1008.7
20260509112016 57 0.0 0.0 0.00 0.00 0.00 83 1008.6
20260509111016 57 0.0 0.0 0.00 0.00 0.00 83 1008.6
20260509110036 57 0.0 0.0 0.00 0.00 0.00 83 1008.6
20260509105016 57 0.0 0.0 0.00 0.00 0.00 83 1008.6
20260509104016 58 0.0 2.6 0.00 0.00 0.00 83 1008.4
20260509103016 58 0.0 0.0 0.00 0.00 0.00 82 1008.2
20260509102016 58 0.0 0.0 0.00 0.00 0.00 81 1008.4
20260509101016 58 0.0 1.7 0.00 0.00 0.00 80 1008.5
20260509100016 58 0.0 0.9 0.00 0.00 0.00 79 1008.8
20260509095056 58 0.0 0.9 0.00 0.00 0.00 79 1008.7
20260509094016 59 0.0 0.9 0.00 0.00 0.00 79 1008.8
20260509093016 59 45 0.9 3.5 0.00 0.00 0.00 80 1008.7
20260509092016 59 45 0.9 3.5 0.00 0.00 0.00 79 1008.6
20260509091016 59 45 0.9 3.5 0.00 0.00 0.00 78 1009.1
20260509090016 59 0.0 3.5 0.00 0.00 0.00 77 1009.1
20260509085016 59 0.0 0.0 0.00 0.00 0.00 75 1009.3
20260509084016 59 0.0 0.0 0.00 0.00 0.00 73 1009.2
20260509083016 59 0.0 0.0 0.00 0.00 0.00 72 1009.0
20260509082036 59 0.0 0.0 0.00 0.00 0.00 70 1008.8
20260509081016 59 0.0 0.0 0.00 0.00 0.00 69 1008.9
20260509080016 59 0.0 0.0 0.00 0.00 0.00 67 1008.9
20260509075016 59 0.0 0.0 0.00 0.00 0.00 66 1009.0
20260509074016 59 0.0 0.0 0.00 0.00 0.00 65 1009.0
20260509073056 59 0.0 0.0 0.00 0.00 0.00 63 1008.8
20260509072016 60 0.0 0.0 0.00 0.00 0.00 62 1008.9
20260509071016 60 0.0 0.0 0.00 0.00 0.00 62 1009.1
20260509070016 60 0.0 0.0 0.00 0.00 0.00 62 1009.0
20260509065016 60 0.0 0.0 0.00 0.00 0.00 62 1009.1
20260509064016 60 0.0 0.0 0.00 0.00 0.00 62 1009.3
20260509063016 60 0.0 0.0 0.00 0.00 0.00 62 1009.4
20260509062036 60 0.0 0.0 0.00 0.00 0.00 62 1009.6
20260509061016 60 0.0 0.0 0.00 0.00 0.00 61 1009.6
20260509060016 60 0.0 0.0 0.00 0.00 0.00 61 1009.6
20260509055016 61 0.0 0.0 0.00 0.00 0.00 61 1009.6
20260509054016 61 0.0 0.0 0.00 0.00 0.00 60 1009.7
20260509053016 61 0.0 0.0 0.00 0.00 0.00 60 1009.6
20260509052036 60 0.0 0.0 0.00 0.00 0.00 61 1009.5
20260509051056 61 0.0 0.0 0.00 0.00 0.00 61 1009.5
20260509050016 61 0.0 0.0 0.00 0.00 0.00 61 1009.5
20260509045016 61 0.0 0.0 0.00 0.00 0.00 61 1009.5
20260509044016 61 0.0 0.0 0.00 0.00 0.00 61 1009.5
20260509043016 61 0.0 0.0 0.00 0.00 0.00 60 1009.5
20260509042016 61 0.0 0.0 0.00 0.00 0.00 60 1009.5
20260509041016 61 0.0 0.0 0.00 0.00 0.00 60 1009.6
20260509040016 61 0.0 0.0 0.00 0.00 0.00 60 1009.6
20260509035016 61 0.0 0.0 0.00 0.00 0.00 60 1009.7
20260509034016 61 0.0 0.0 0.00 0.00 0.00 59 1009.8
20260509033016 62 0.0 0.0 0.00 0.00 0.00 59 1009.9
20260509032017 62 0.0 0.0 0.00 0.00 0.00 58 1009.9
20260509031056 62 0.0 0.0 0.00 0.00 0.00 58 1009.9
20260509030016 62 0.0 0.0 0.00 0.00 0.00 57 1010.1
20260509025016 62 0.0 0.0 0.00 0.00 0.00 58 1010.1
20260509024036 62 0.0 0.0 0.00 0.00 0.00 58 1010.0
20260509023036 62 0.0 0.0 0.00 0.00 0.00 59 1010.1
20260509022016 62 0.0 0.0 0.00 0.00 0.00 59 1010.1
20260509021016 62 0.0 0.0 0.00 0.00 0.00 58 1010.3
20260509020016 62 0.0 0.0 0.00 0.00 0.00 57 1010.2
20260509015036 62 0.0 1.7 0.00 0.00 0.00 56 1010.0
20260509014016 63 0.0 1.7 0.00 0.00 0.00 55 1010.0
20260509013016 64 225 0.9 1.7 0.00 0.00 0.00 55 1009.9
20260509012116 64 0.0 1.7 0.00 0.00 0.00 53 1009.8
20260509011036 65 225 0.9 2.6 0.00 0.00 0.00 52 1009.9
20260509010016 65 248 0.9 1.7 0.00 0.00 0.00 51 1009.9
20260509005016 66 248 1.7 3.5 0.00 0.00 0.00 49 1009.8
20260509004016 67 248 1.7 5.2 0.00 0.00 0.00 48 1009.9
20260509003016 67 248 1.7 5.2 0.00 0.00 0.00 47 1009.8
20260509002016 68 248 1.7 4.3 0.00 0.00 0.00 46 1009.9
20260509001016 69 248 2.6 7.0 0.00 0.00 0.00 45 1009.9
20260509000016 69 248 3.5 6.1 0.00 0.00 0.00 43 1009.9
20260508235016 70 248 4.3 10.4 0.00 0.00 0.00 42 1009.8
20260508234016 70 248 4.3 10.4 0.00 0.00 0.00 42 1010.0
20260508233016 71 248 5.2 13.0 0.00 0.00 0.00 42 1010.0
20260508232016 71 248 4.3 11.3 0.00 0.00 0.00 41 1009.9
20260508231016 71 248 6.1 11.3 0.00 0.00 0.00 41 1010.0
20260508230017 71 225 5.2 11.3 0.00 0.00 0.00 42 1010.0
20260508225036 72 248 5.2 12.2 0.00 0.00 0.00 42 1010.2
20260508224016 72 248 5.2 11.3 0.00 0.00 0.00 41 1010.4
20260508223016 72 248 5.2 11.3 0.00 0.00 0.00 41 1010.4
20260508222016 72 248 4.3 8.7 0.00 0.00 0.00 43 1010.3
20260508221016 71 248 5.2 10.4 0.00 0.00 0.00 42 1010.2
20260508220056 72 248 6.1 10.4 0.00 0.00 0.00 41 1010.2
20260508215016 73 225 5.2 12.2 0.00 0.00 0.00 40 1010.1
20260508214016 74 248 5.2 13.0 0.00 0.00 0.00 40 1010.0
20260508213016 74 248 5.2 11.3 0.00 0.00 0.00 42 1010.0
20260508212056 74 248 5.2 11.3 0.00 0.00 0.00 41 1010.3
20260508211016 74 248 6.1 13.0 0.00 0.00 0.00 41 1010.4
20260508210016 74 248 5.2 13.0 0.00 0.00 0.00 42 1010.7
20260508205016 74 248 6.1 13.9 0.00 0.00 0.00 39 1010.7
20260508204016 74 248 5.2 12.2 0.00 0.00 0.00 38 1010.9
20260508203016 74 248 6.1 13.9 0.00 0.00 0.00 39 1011.1
20260508202016 74 248 5.2 11.3 0.00 0.00 0.00 39 1011.4
20260508201016 74 225 5.2 12.2 0.00 0.00 0.00 38 1011.4
20260508200016 74 248 5.2 13.0 0.00 0.00 0.00 40 1011.7
20260508195016 74 248 6.1 13.0 0.00 0.00 0.00 39 1011.8
20260508194036 75 248 6.1 13.0 0.00 0.00 0.00 38 1012.2
20260508193016 75 248 5.2 13.0 0.00 0.00 0.00 42 1012.2
20260508192036 75 248 5.2 9.6 0.00 0.00 0.00 39 1012.4
20260508191016 74 248 6.1 12.2 0.00 0.00 0.00 37 1012.6
20260508190016 74 248 7.0 14.8 0.00 0.00 0.00 41 1012.7
20260508185016 74 248 7.0 14.8 0.00 0.00 0.00 41 1012.7
20260508184016 74 248 5.2 12.2 0.00 0.00 0.00 43 1012.6
20260508183016 74 248 6.1 13.0 0.00 0.00 0.00 40 1012.7
20260508182016 74 248 5.2 10.4 0.00 0.00 0.00 40 1012.5
20260508181016 75 248 4.3 8.7 0.00 0.00 0.00 39 1012.5
20260508180016 74 248 4.3 12.2 0.00 0.00 0.00 38 1012.8
20260508175016 73 248 4.3 9.6 0.00 0.00 0.00 45 1012.9
20260508174016 73 248 7.0 18.2 0.00 0.00 0.00 42 1013.5
20260508173016 73 248 6.1 13.9 0.00 0.00 0.00 38 1013.8
20260508172016 73 248 4.3 11.3 0.00 0.00 0.00 43 1013.9
20260508171016 73 248 4.3 8.7 0.00 0.00 0.00 40 1014.0
20260508170016 72 225 5.2 13.0 0.00 0.00 0.00 38 1014.3
20260508165016 72 248 5.2 12.2 0.00 0.00 0.00 39 1014.3